Home   Weather   Montpellier   Past weeks

Flag for France Past Weather in Montpellier, Languedoc-Roussillon, France — Yesterday and Last 2 Weeks

Now
46 °F

Clear.


Feels Like: 44 °F
Forecast: 46 / 59 °F
Wind: 5 mph from Northwest

Location: Montpellier Airport

Current Time: May 1, 2017 at 4:48:29 am

Latest Report: May 1, 2017 at 4:00 am


Visibility: N/A

Pressure: 29.95 "Hg

Humidity: 87%

Dew Point: 43 °F

Location of MontpellierLocation

Past Weather in Montpellier — Graph

°F

Montpellier Temperature Yesterday

Maximum temperature yesterday: 59 °F (at 4:00 pm)
Minimum temperature yesterday: 46 °F (at 1:00 am)
Average temperature yesterday: 54 °F

High & Low Weather Summary for the Past Weeks

 TemperatureHumidityPressure
High75 °F (Apr 16, 4:00 pm)100% (Apr 25, 11:30 pm)30.39 "Hg (Apr 25, 11:30 pm)
Low41 °F (Apr 22, 6:00 am)15% (Apr 18, 6:30 pm)29.68 "Hg (Apr 26, 12:30 am)
Average56 °F55%30.05 "Hg
* Reported Apr 16 3:00 am — May 1 3:30 am, Montpellier, Weather by CustomWeather, © 2017

Note: Actual official high and low records may vary slightly from our data, if they occured in-between our weather recording intervals... More about our weather records

Advertising

Montpellier Weather History for the Previous 24 Hours

Scroll right to see more
 ConditionsComfort  
Time TempWeatherWind HumidityBarometerVisibility
3:30 am
Mon, May 1
45 °FClear.5 mph93%29.98 "Hg10 mi
3:00 am46 °FClear.7 mph87%29.95 "Hg10 mi
2:30 am46 °FClear.6 mph87%29.95 "Hg10 mi
2:00 am46 °FLight rain. Clear.5 mph87%29.95 "HgN/A
1:30 am46 °FLight rain. Overcast.7 mph93%29.95 "HgN/A
12:30 am46 °FLight rain. Mostly cloudy.9 mph87%29.95 "HgN/A
12:00 am46 °FLight rain. Overcast.8 mph87%29.92 "HgN/A
11:30 pm
Sun, Apr 30
48 °FRain. Overcast.9 mph82%29.89 "HgN/A
11:00 pm48 °FLight rain. Overcast.15 mph82%29.86 "HgN/A
10:30 pm48 °FLight rain. Overcast.14 mph87%29.86 "HgN/A
10:00 pm50 °FRain. Mostly cloudy.15 mph82%29.83 "HgN/A
9:30 pm50 °FRain. Overcast.16 mph88%29.80 "Hg4 mi
9:00 pm57 °FLight rain. Mostly cloudy.30 mph94%29.74 "Hg5 mi
8:30 pm59 °FOvercast.30 mph82%29.74 "HgN/A
8:00 pm59 °FOvercast.30 mph82%29.74 "HgN/A
7:30 pm59 °FOvercast.29 mph82%29.74 "HgN/A
7:00 pm59 °FMore clouds than sun.28 mph82%29.74 "HgN/A
6:30 pm59 °FOvercast.29 mph82%29.77 "HgN/A
6:00 pm59 °FOvercast.28 mph82%29.77 "HgN/A
5:30 pm59 °FMostly cloudy.28 mph82%29.77 "HgN/A
5:00 pm59 °FOvercast.29 mph82%29.80 "HgN/A
4:30 pm59 °FMore clouds than sun.28 mph82%29.80 "HgN/A
4:00 pm59 °FMostly cloudy.28 mph82%29.80 "HgN/A
3:30 pm57 °FMostly cloudy.28 mph88%29.80 "HgN/A
3:00 pm57 °FMostly cloudy.28 mph88%29.83 "HgN/A
2:30 pm57 °FMostly cloudy.28 mph88%29.83 "HgN/A
2:00 pm57 °FCloudy.28 mph88%29.83 "HgN/A
1:30 pm57 °FMostly cloudy.29 mph82%29.83 "HgN/A
1:00 pm57 °FMostly cloudy.29 mph82%29.86 "HgN/A
12:30 pm57 °FOvercast.30 mph82%29.86 "HgN/A
12:00 pm57 °FOvercast.28 mph82%29.86 "HgN/A
11:30 am57 °FOvercast.29 mph82%29.86 "HgN/A
11:00 am55 °FMostly cloudy.24 mph88%29.86 "HgN/A
10:30 am55 °FOvercast.24 mph88%29.86 "HgN/A
10:00 am55 °FLight rain. More clouds than sun.23 mph94%29.89 "Hg4 mi
9:30 am55 °FLight rain. Mostly cloudy.23 mph88%29.89 "HgN/A
9:00 am57 °FMore clouds than sun.22 mph77%29.89 "HgN/A
8:30 am57 °FMostly cloudy.20 mph77%29.89 "HgN/A
8:00 am57 °FMostly cloudy.17 mph82%29.89 "HgN/A
7:30 am54 °FMostly cloudy.12 mph88%29.89 "HgN/A
7:00 am52 °FMostly cloudy.9 mph88%29.92 "HgN/A
6:30 am52 °FMostly cloudy.12 mph88%29.92 "HgN/A
5:30 am50 °FMostly cloudy.13 mph94%29.92 "HgN/A
5:00 am50 °FOvercast.12 mph88%29.92 "HgN/A
4:30 am50 °FMostly cloudy.9 mph88%29.92 "HgN/A
4:00 am48 °FMostly cloudy.6 mph87%29.92 "HgN/A
Weather by CustomWeather, © 2017

See weather overviewHow to use our weather pages